Location: *
(49.5667°N, 1.3667°W)
Time: 01:39:31
(UTC+00:00)

EO 1 Delta rocket - Pass Details

Date: 20 September 2019
Orbit: 696 x 1793 km, 95.4° (Epoch: 13 October)

Event Time Altitude Azimuth Distance (km) Brightness Sun altitude
Rises 19:05:34 0° 159° (SSE) 4,072 7.4 -10.0°
Reaches altitude 10° 19:08:28 10° 157° (SSE) 2,950 6.7 -10.4°
Maximum altitude 19:14:54 67° 77° (ENE) 992 4.4 -11.4°
Drops below altitude 10° 19:20:05 10° 355° (N) 2,381 6.8 -12.2°
Sets 19:22:12 0° 353° (N) 3,234 7.6 -12.6°
